Torna al catalogo

CZ-4C R/B

AttivoLEO
NORAD 52085·ROCKET BODY·🇨🇳 China

Lanciato Mar 17, 2022 da Jiuquan Satellite Launch Center

Loading…

Prossimi Passaggi (prossime 24 ore)

TLE

AggiornatoSource: Space-Track

Epoca: Sep 14, 2026, 19:13 UTC

1 52085U 22027B   26257.80088618 -.00000058  00000-0  37501-4 0  9998
2 52085  63.3929 180.3390 0240573  22.3423 338.7883 13.65485088224270

Traccia CZ-4C R/B in tempo reale con AllMySat

Download on the App Store